H1 CPF 2 NER 2021 4 30 9 120 01 glonass139 H2 1808601 9139 43687 2021 4 30 0 0 0 2021 5 3 23 45 0 900 1 1 0 0 0 1 H9 10 0 59334 0.00000 0 13944007.242 17969089.440 11564664.169 10 0 59334 900.00000 0 12731607.518 16936981.008 14219582.561 10 0 59334 1800.00000 0 11186043.409 15829952.453 16598603.331 10 0 59334 2700.00000 0 9324802.297 14707463.606 18655642.196 10 0 59334 3600.00000 0 7177750.380 13626078.365 20350871.332 10 0 59334 4500.00000 0 4786139.805 12637047.734 21651482.014 10 0 59334 5400.00000 0 2201144.814 11784135.993 22532311.413 10 0 59334 6300.00000 0 -518013.292 11101780.343 22976322.425 10 0 59334 7200.00000 0 -3306275.422 10613660.254 22974928.097 10 0 59334 8100.00000 0 -6095197.854 10331735.547 22528155.079 10 0 59334 9000.00000 0 -8815549.016 10255792.811 21644643.235 10 0 59334 9900.00000 0 -11399943.566 10373518.723 20341481.400 10 0 59334 10800.00000 0 -13785406.014 10661097.072 18643882.108 10 0 59334 11700.00000 0 -15915758.796 11084304.542 16584700.849 10 0 59334 12600.00000 0 -17743736.580 11600059.651 14203808.303 10 0 59334 13500.00000 0 -19232739.701 12158360.229 11547326.673 10 0 59334 14400.00000 0 -20358154.226 12704528.407 8666743.879 10 0 59334 15300.00000 0 -21108183.807 13181668.987 5617921.953 10 0 59334 16200.00000 0 -21484158.668 13533237.685 2460018.176 10 0 59334 17100.00000 0 -21500308.792 13705610.776 -745660.523 10 0 59334 18000.00000 0 -21183010.754 13650547.163 -3936847.701 10 0 59334 18900.00000 0 -20569539.824 13327438.084 -7051528.783 10 0 59334 19800.00000 0 -19706379.907 12705248.268 -10029149.790 10 0 59334 20700.00000 0 -18647162.618 11764065.252 -12811799.268 10 0 59334 21600.00000 0 -17450322.597 10496189.871 -15345339.872 10 0 59334 22500.00000 0 -16176568.182 8906720.287 -17580467.029 10 0 59334 23400.00000 0 -14886274.440 7013603.315 -19473673.480 10 0 59334 24300.00000 0 -13636908.758 4847149.231 -20988100.635 10 0 59334 25200.00000 0 -12480597.721 2449028.859 -22094259.891 10 0 59334 26100.00000 0 -11461937.998 -129206.343 -22770609.713 10 0 59334 27000.00000 0 -10616143.443 -2828020.496 -23003977.226 10 0 59334 27900.00000 0 -9967606.337 -5582127.617 -22789816.101 10 0 59334 28800.00000 0 -9528933.166 -8322971.494 -22132295.692 10 0 59334 29700.00000 0 -9300495.164 -10981348.328 -21044219.702 10 0 59334 30600.00000 0 -9270512.059 -13490063.320 -19546775.876 10 0 59334 31500.00000 0 -9415664.968 -15786510.745 -17669121.586 10 0 59334 32400.00000 0 -9702211.891 -17815070.281 -15447813.314 10 0 59334 33300.00000 0 -10087558.004 -19529220.006 -12926091.156 10 0 59334 34200.00000 0 -10522213.625 -20893278.196 -10153032.467 10 0 59334 35100.00000 0 -10952056.289 -21883701.800 -7182591.382 10 0 59334 36000.00000 0 -11320800.410 -22489888.048 -4072543.305 10 0 59334 36900.00000 0 -11572569.255 -22714446.662 -883355.532 10 0 59334 37800.00000 0 -11654459.678 -22572932.488 2322993.364 10 0 59334 38700.00000 0 -11518990.446 -22093051.222 5484221.851 10 0 59334 39600.00000 0 -11126330.135 -21313372.971 8538957.267 10 0 59334 40500.00000 0 -10446210.079 -20281609.173 11427927.239 10 0 59334 41400.00000 0 -9459441.334 -19052526.461 14095107.422 10 0 59334 42300.00000 0 -8158971.546 -17685586.057 16488803.305 10 0 59334 43200.00000 0 -6550436.990 -16242408.390 18562645.582 10 0 59334 44100.00000 0 -4652186.281 -14784169.455 20276480.514 10 0 59334 45000.00000 0 -2494774.315 -13369037.831 21597138.876 10 0 59334 45900.00000 0 -119946.877 -12049759.080 22499069.689 10 0 59334 46800.00000 0 2420842.676 -10871487.724 22964827.472 10 0 59334 47700.00000 0 5068323.993 -9869956.418 22985404.482 10 0 59334 48600.00000 0 7757630.322 -9070057.794 22560402.174 10 0 59334 49500.00000 0 10420758.430 -8484897.165 21698038.935 10 0 59334 50400.00000 0 12989167.134 -8115354.946 20414993.902 10 0 59334 51300.00000 0 15396408.116 -7950176.444 18736089.538 10 0 59334 52200.00000 0 17580681.105 -7966584.952 16693818.421 10 0 59334 53100.00000 0 19487208.242 -8131392.367 14327722.507 10 0 59334 54000.00000 0 21070329.691 -8402560.834 11683635.897 10 0 59334 54900.00000 0 22295233.692 -8731149.957 8812804.701 10 0 59334 55800.00000 0 23139249.021 -9063567.836 5770900.251 10 0 59334 56700.00000 0 23592645.846 -9344031.129 2616944.089 10 0 59334 57600.00000 0 23658911.276 -9517130.212 -587834.850 10 0 59334 58500.00000 0 23354487.753 -9530390.711 -3781188.711 10 0 59334 59400.00000 0 22707985.032 -9336722.480 -6901061.617 10 0 59334 60300.00000 0 21758898.653 -8896651.501 -9886799.130 10 0 59334 61200.00000 0 20555888.714 -8180239.132 -12680332.108 10 0 59334 62100.00000 0 19154691.389 -7168606.169 -15227311.378 10 0 59334 63000.00000 0 17615751.216 -5854995.728 -17478170.588 10 0 59334 63900.00000 0 16001673.996 -4245328.490 -19389095.942 10 0 59334 64800.00000 0 14374607.718 -2358225.214 -20922883.614 10 0 59334 65700.00000 0 12793661.812 -224493.901 -22049667.878 10 0 59334 66600.00000 0 11312473.386 2113898.348 -22747505.604 10 0 59334 67500.00000 0 9977022.703 4605327.054 -23002805.706 10 0 59334 68400.00000 0 8823789.499 7190424.025 -22810595.183 10 0 59334 69300.00000 0 7878327.290 9804323.871 -22174616.560 10 0 59334 70200.00000 0 7154315.073 12379150.282 -21107254.833 10 0 59334 71100.00000 0 6653125.558 14846638.887 -19629295.293 10 0 59334 72000.00000 0 6363927.346 17140787.517 -17769516.908 10 0 59334 72900.00000 0 6264315.753 19200423.553 -15564129.149 10 0 59334 73800.00000 0 6321444.652 20971581.366 -13056063.226 10 0 59334 74700.00000 0 6493610.510 22409590.695 -10294131.734 10 0 59334 75600.00000 0 6732220.566 23480788.981 -7332073.314 10 0 59334 76500.00000 0 6984060.833 24163786.481 -4227501.317 10 0 59334 77400.00000 0 7193766.951 24450231.832 -1040777.580 10 0 59334 78300.00000 0 7306392.343 24345046.882 2166166.193 10 0 59334 79200.00000 0 7269964.176 23866122.059 5331035.874 10 0 59334 80100.00000 0 7037918.292 23043486.238 8392387.064 10 0 59334 81000.00000 0 6571309.666 21917987.230 11290817.990 10 0 59334 81900.00000 0 5840704.616 20539539.407 13970119.869 10 0 59334 82800.00000 0 4827674.704 18965012.946 16378362.395 10 0 59334 83700.00000 0 3525829.167 17255853.836 18468893.778 10 0 59334 84600.00000 0 1941342.166 15475534.582 20201236.637 10 0 59334 85500.00000 0 92952.369 13686942.228 21541863.238 10 0 59335 0.00000 0 -1988565.655 11949812.327 22464836.122 10 0 59335 900.00000 0 -4261437.411 10318315.318 22952302.801 10 0 59335 1800.00000 0 -6674388.604 8838894.472 22994835.695 10 0 59335 2700.00000 0 -9168549.692 7548445.529 22591611.587 10 0 59335 3600.00000 0 -11679685.900 6472911.219 21750427.434 10 0 59335 4500.00000 0 -14140662.084 5626349.428 20487552.192 10 0 59335 5400.00000 0 -16484041.287 5010512.324 18827417.229 10 0 59335 6300.00000 0 -18644710.456 4614953.528 16802150.639 10 0 59335 7200.00000 0 -20562425.097 4417658.343 14450963.579 10 0 59335 8100.00000 0 -22184167.833 4386170.384 11819399.524 10 0 59335 9000.00000 0 -23466223.053 4479167.208 8958459.893 10 0 59335 9900.00000 0 -24375881.158 4648418.700 5923622.182 10 0 59335 10800.00000 0 -24892701.074 4841045.677 2773768.893 10 0 59335 11700.00000 0 -25009277.848 5001983.281 -429952.407 10 0 59335 12600.00000 0 -24731482.613 5076544.823 -3625315.836 10 0 59335 13500.00000 0 -24078164.355 5012977.102 -6750227.563 10 0 59335 14400.00000 0 -23080325.511 4764898.305 -9743935.949 10 0 59335 15300.00000 0 -21779805.635 4293514.308 -12548217.275 10 0 59335 16200.00000 0 -20227528.223 3569518.332 -15108513.445 10 0 59335 17100.00000 0 -18481384.266 2574592.196 -17374998.941 10 0 59335 18000.00000 0 -16603841.476 1302444.228 -19303555.672 10 0 59335 18900.00000 0 -14659379.706 -240661.589 -20856636.365 10 0 59335 19800.00000 0 -12711860.284 -2035909.169 -22003999.462 10 0 59335 20700.00000 0 -10821939.739 -4052467.931 -22723300.979 10 0 59335 21600.00000 0 -9044636.316 -6248543.340 -23000531.826 10 0 59335 22500.00000 0 -7427151.094 -8572897.668 -22830292.020 10 0 59335 23400.00000 0 -6007034.720 -10966778.240 -22215896.465 10 0 59335 24300.00000 0 -4810776.041 -13366173.420 -21169310.239 10 0 59335 25200.00000 0 -3852871.046 -15704302.625 -19710914.599 10 0 59335 26100.00000 0 -3135410.309 -17914236.623 -17869108.231 10 0 59335 27000.00000 0 -2648201.112 -19931538.890 -15679751.481 10 0 59335 27900.00000 0 -2369417.838 -21696817.690 -13185464.407 10 0 59335 28800.00000 0 -2266751.944 -23158082.139 -10434792.483 10 0 59335 29700.00000 0 -2299011.568 -24272803.765 -7481256.469 10 0 59335 30600.00000 0 -2418101.863 -25009597.395 -4382305.304 10 0 59335 31500.00000 0 -2571301.008 -25349451.240 -1198193.050 10 0 59335 32400.00000 0 -2703734.419 -25286455.151 2009197.698 10 0 59335 33300.00000 0 -2760941.411 -24827997.235 5177562.400 10 0 59335 34200.00000 0 -2691424.809 -23994421.488 8245387.039 10 0 59335 35100.00000 0 -2449075.055 -22818161.791 11153142.522 10 0 59335 36000.00000 0 -1995365.837 -21342389.588 13844437.640 10 0 59335 36900.00000 0 -1301228.277 -19619232.809 16267108.232 10 0 59335 37800.00000 0 -348524.462 -17707641.263 18374221.843 10 0 59335 38700.00000 0 868941.937 -15670988.110 20124979.129 10 0 59335 39600.00000 0 2344920.617 -13574507.653 21485495.343 10 0 59335 40500.00000 0 4060736.813 -11482675.943 22429447.847 10 0 59335 41400.00000 0 5985840.405 -9456642.619 22938578.168 10 0 59335 42300.00000 0 8078859.863 -7551819.992 23003039.724 10 0 59335 43200.00000 0 10289118.239 -5815728.452 22621585.244 10 0 59335 44100.00000 0 12558549.382 -4286186.559 21801590.628 10 0 59335 45000.00000 0 14823935.976 -2989919.930 20558914.795 10 0 59335 45900.00000 0 17019377.751 -1941645.661 18917597.930 10 0 59335 46800.00000 0 19078888.512 -1143669.473 16909403.291 10 0 59335 47700.00000 0 20939014.944 -586011.663 14573210.593 10 0 59335 48600.00000 0 22541368.949 -247056.052 11954271.701 10 0 59335 49500.00000 0 23834968.427 -94694.319 9103341.992 10 0 59335 50400.00000 0 24778288.800 -87917.505 6075703.361 10 0 59335 51300.00000 0 25340939.380 -178787.518 2930097.102 10 0 59335 52200.00000 0 25504893.881 -314705.309 -272413.142 10 0 59335 53100.00000 0 25265222.825 -440879.720 -3469626.325 10 0 59335 54000.00000 0 24630296.353 -502892.131 -6599413.745 10 0 59335 54900.00000 0 23621448.128 -449247.777 -9600929.747 10 0 59335 55800.00000 0 22272113.768 -233804.868 -12415799.216 10 0 59335 56700.00000 0 20626479.380 182022.350 -14989258.218 10 0 59335 57600.00000 0 18737696.539 827381.087 -17271224.988 10 0 59335 58500.00000 0 16665738.380 1720498.979 -19217279.845 10 0 59335 59400.00000 0 14474986.599 2867668.576 -20789534.551 10 0 59335 60300.00000 0 12231650.399 4262741.692 -21957373.938 10 0 59335 61200.00000 0 10001125.540 5887156.339 -22698055.132 10 0 59335 62100.00000 0 7845403.920 7710496.540 -22997152.693 10 0 59335 63000.00000 0 5820641.843 9691562.770 -22848840.963 10 0 59335 63900.00000 0 3974988.478 11779909.163 -22256008.151 10 0 59335 64800.00000 0 2346764.712 13917783.932 -21230199.909 10 0 59335 65700.00000 0 963067.933 16042392.450 -19791393.494 10 0 59335 66600.00000 0 -161139.779 18088388.530 -17967606.870 10 0 59335 67500.00000 0 -1023422.992 19990489.931 -15794350.345 10 0 59335 68400.00000 0 -1633728.735 21686108.562 -13313931.434 10 0 59335 69300.00000 0 -2013714.285 23117885.144 -10574626.655 10 0 59335 70200.00000 0 -2195576.844 24236022.013 -7629736.635 10 0 59335 71100.00000 0 -2220436.051 25000316.201 -4536543.289 10 0 59335 72000.00000 0 -2136339.151 25381807.494 -1355189.978 10 0 59335 72900.00000 0 -1995974.613 25363972.573 1852492.954 10 0 59335 73800.00000 0 -1854192.155 24943415.452 5024193.842 10 0 59335 74700.00000 0 -1765435.160 24130025.820 8098332.391 10 0 59335 75600.00000 0 -1781194.899 22946599.335 11015255.492 10 0 59335 76500.00000 0 -1947594.785 21427936.520 13718392.728 10 0 59335 77400.00000 0 -2303207.008 19619458.739 16155349.141 10 0 59335 78300.00000 0 -2877193.864 17575399.695 18278914.495 10 0 59335 79200.00000 0 -3687852.175 15356648.359 20047970.138 10 0 59335 80100.00000 0 -4741622.080 13028333.359 21428276.718 10 0 59335 81000.00000 0 -6032602.030 10657249.204 22393128.544 10 0 59335 81900.00000 0 -7542590.703 8309230.738 22923862.980 10 0 59335 82800.00000 0 -9241654.666 6046584.123 23010215.866 10 0 59335 83700.00000 0 -11089198.967 3925679.871 22650516.863 10 0 59335 84600.00000 0 -13035497.078 1994806.566 21851721.311 10 0 59335 85500.00000 0 -15023617.631 292373.173 20629278.049 10 0 59336 0.00000 0 -16991668.995 -1154466.727 19006835.505 10 0 59336 900.00000 0 -18875269.497 -2330712.492 17015790.807 10 0 59336 1800.00000 0 -20610141.404 -3233899.857 14694690.512 10 0 59336 2700.00000 0 -22134721.115 -3873953.924 12088492.583 10 0 59336 3600.00000 0 -23392677.682 -4272519.775 9247703.624 10 0 59336 4500.00000 0 -24335233.955 -4461798.108 6227406.847 10 0 59336 5400.00000 0 -24923193.371 -4482935.620 3086198.986 10 0 59336 6300.00000 0 -25128586.842 -4384038.061 -114943.756 10 0 59336 7200.00000 0 -24935869.866 -4217890.045 -3313848.784 10 0 59336 8100.00000 0 -24342618.692 -4039478.367 -6448356.164 10 0 59336 9000.00000 0 -23359695.211 -3903424.107 -9457529.829 10 0 59336 9900.00000 0 -22010872.687 -3861432.867 -12282846.769 10 0 59336 10800.00000 0 -20331937.084 -3959871.991 -14869340.525 10 0 59336 11700.00000 0 -18369300.955 -4237578.312 -17166676.131 10 0 59336 12600.00000 0 -16178187.465 -4723990.323 -19130134.980 10 0 59336 13500.00000 0 -13820460.239 -5437684.974 -20721490.048 10 0 59336 14400.00000 0 -11362189.584 -6385382.160 -21909754.170 10 0 59336 15300.00000 0 -8871056.772 -7561460.150 -22671786.567 10 0 59336 16200.00000 0 -6413704.671 -8948003.607 -22992745.783 10 0 59336 17100.00000 0 -4053145.159 -10515383.345 -22866380.211 10 0 59336 18000.00000 0 -1846331.345 -12223344.401 -22295150.512 10 0 59336 18900.00000 0 158004.521 -14022557.598 -21290181.575 10 0 59336 19800.00000 0 1921157.828 -15856570.114 -19871044.913 10 0 59336 20700.00000 0 3415828.322 -17664073.591 -18065375.691 10 0 59336 21600.00000 0 4627010.316 -19381394.887 -15908331.854 10 0 59336 22500.00000 0 5552360.385 -20945104.975 -13441905.868 10 0 59336 23400.00000 0 6202028.587 -22294636.353 -10714102.673 10 0 59336 24300.00000 0 6597961.938 -23374798.889 -7778000.083 10 0 59336 25200.00000 0 6772711.219 -24138088.209 -4690710.294 10 0 59336 26100.00000 0 6767793.054 -24546689.419 -1512263.316 10 0 59336 27000.00000 0 6631678.110 -24574091.951 1695565.345 10 0 59336 27900.00000 0 6417491.876 -24206247.708 4870459.371 10 0 59336 28800.00000 0 6180526.496 -23442224.115 7950774.542 10 0 59336 29700.00000 0 5975669.847 -22294325.034 10876735.933 10 0 59336 30600.00000 0 5854861.274 -20787674.915 13591595.946 10 0 59336 31500.00000 0 5864681.845 -18959284.105 16042730.659 10 0 59336 32400.00000 0 6044181.013 -16856634.796 18182653.657 10 0 59336 33300.00000 0 6423031.303 -14535846.885 19969928.345 10 0 59336 34200.00000 0 7020088.576 -12059500.259 21369961.866 10 0 59336 35100.00000 0 7842418.335 -9494203.857 22355666.309 10 0 59336 36000.00000 0 8884829.001 -6908011.935 22907975.435 10 0 59336 36900.00000 0 10129931.950 -4367793.994 23016207.823 10 0 59336 37800.00000 0 11548726.338 -1936666.358 22678270.146 10 0 59336 38700.00000 0 13101685.077 328409.439 21900697.072 10 0 59336 39600.00000 0 14740297.541 2378763.062 20698527.064 10 0 59336 40500.00000 0 16409005.790 4175799.348 19095016.238 10 0 59336 41400.00000 0 18047454.655 5692356.973 17121195.140 10 0 59336 42300.00000 0 19592962.798 6913586.275 14815276.252 10 0 59336 43200.00000 0 20983112.442 7837310.600 12221922.625 10 0 59336 44100.00000 0 22158350.084 8473856.748 9391390.814 10 0 59336 45000.00000 0 23064489.570 8845362.085 6378563.799 10 0 59336 45900.00000 0 23655012.554 8984587.810 3241891.917 10 0 59336 46800.00000 0 23893069.334 8933288.568 42261.813 10 0 59336 47700.00000 0 23753095.254 8740207.384 -3158184.731 10 0 59336 48600.00000 0 23221973.733 8458780.900 -6297259.087 10 0 59336 49500.00000 0 22299695.778 8144652.313 -9313937.414 10 0 59336 50400.00000 0 20999487.056 7853097.764 -12149551.465 10 0 59336 51300.00000 0 19347395.933 7636475.783 -14748934.857 10 0 59336 52200.00000 0 17381358.630 7541808.551 -17061501.922 10 0 59336 53100.00000 0 15149779.818 7608598.226 -19042237.486 10 0 59336 54000.00000 0 12709687.337 7866971.659 -20652577.959 10 0 59336 54900.00000 0 10124537.664 8336232.928 -21861166.243 10 0 59336 55800.00000 0 7461763.503 9023885.812 -22644465.552 10 0 59336 56700.00000 0 4790165.562 9925168.396 -22987220.126 10 0 59336 57600.00000 0 2177257.050 11023120.370 -22882753.857 10 0 59336 58500.00000 0 -313328.611 12289180.954 -22333101.005 10 0 59336 59400.00000 0 -2624259.173 13684292.989 -21348966.461 10 0 59336 60300.00000 0 -4706653.644 15160467.291 -19949516.325 10 0 59336 61200.00000 0 -6521871.973 16662741.816 -18162002.837 10 0 59336 62100.00000 0 -8042870.559 18131453.449 -16021230.981 10 0 59336 63000.00000 0 -9255068.088 19504726.888 -13568877.125 10 0 59336 63900.00000 0 -10156686.717 20721075.760 -10852673.150 10 0 59336 64800.00000 0 -10758555.916 21722006.282 -7925472.196 10 0 59336 65700.00000 0 -11083388.901 22454513.570 -4844214.544 10 0 59336 66600.00000 0 -11164563.836 22873365.156 -1668814.373 10 0 59336 67500.00000 0 -11044462.963 22943075.366 1539010.372 10 0 59336 68400.00000 0 -10772441.356 22639487.276 4716941.623 10 0 59336 69300.00000 0 -10402512.536 21950895.655 7803274.270 10 0 59336 70200.00000 0 -9990849.902 20878663.837 10738114.692 10 0 59336 71100.00000 0 -9593210.403 19437308.735 13464541.244 10 0 59336 72000.00000 0 -9262389.764 17654050.725 15929704.151 10 0 59336 72900.00000 0 -9045816.878 15567847.404 18085843.853 10 0 59336 73800.00000 0 -8983388.720 13227951.613 19891208.706 10 0 59336 74700.00000 0 -9105636.687 10692053.839 21310855.051 10 0 59336 75600.00000 0 -9432301.185 8024085.915 22317315.216 10 0 59336 76500.00000 0 -9971374.042 5291776.639 22891121.519 10 0 59336 77400.00000 0 -10718648.783 2564059.989 23021177.063 10 0 59336 78300.00000 0 -11657797.706 -91557.798 22704966.902 10 0 59336 79200.00000 0 -12760972.917 -2611564.434 21948605.904 10 0 59336 80100.00000 0 -13989906.778 -4938836.038 20766722.506 10 0 59336 81000.00000 0 -15297466.625 -7024761.965 19182180.332 10 0 59336 81900.00000 0 -16629599.711 -8831013.139 17225642.470 10 0 59336 82800.00000 0 -17927587.989 -10330881.460 14934986.013 10 0 59336 83700.00000 0 -19130519.272 -11510135.512 12354577.210 10 0 59336 84600.00000 0 -20177871.941 -12367357.627 9534420.205 10 0 59336 85500.00000 0 -21012105.166 -12913748.698 6529194.985 10 0 59337 0.00000 0 -21581146.015 -13172409.370 3397202.475 10 0 59337 900.00000 0 -21840668.243 -13177128.035 199236.283 10 0 59337 1800.00000 0 -21756067.247 -12970726.980 -3002596.081 10 0 59337 2700.00000 0 -21304045.233 -12603036.495 -6146080.939 10 0 59337 3600.00000 0 -20473740.628 -12128583.008 -9170110.379 10 0 59337 4500.00000 0 -19267351.365 -11604089.211 -12015874.604 10 0 59337 5400.00000 0 -17700225.048 -11085892.479 -14628010.903 10 0 59337 6300.00000 0 -15800410.559 -10627391.409 -16955686.287 10 0 59337 7200.00000 0 -13607688.745 -10276629.154 -18953592.095 10 0 59337 8100.00000 0 -11172121.680 -10074116.492 -20582830.803 10 0 59337 9000.00000 0 -8552180.278 -10050987.381 -21811677.476 10 0 59337 9900.00000 0 -5812527.903 -10227565.630 -22616200.786 10 0 59337 10800.00000 0 -3021551.904 -10612403.851 -22980731.471 10 0 59337 11700.00000 0 -248745.559 -11201835.870 -22898169.079 10 0 59337 12600.00000 0 2437950.727 -11980061.960 -22370121.007 10 0 59337 13500.00000 0 4974738.645 -12919763.764 -21406871.154 10 0 59337 14400.00000 0 7304374.179 -13983223.298 -20027178.747 10 0 59337 15300.00000 0 9378302.736 -15123899.081 -18257911.249 10 0 59337 16200.00000 0 11158428.898 -16288393.029 -16133518.496 10 0 59337 17100.00000 0 12618447.833 -17418725.160 -13695358.278 10 0 59337 18000.00000 0 13744683.770 -18454819.969 -10990886.698 10 0 59337 18900.00000 0 14536401.837 -19337099.349 -8072729.291 10 0 59337 19800.00000 0 15005581.722 -20009072.284 -4997651.331 10 0 59337 20700.00000 0 15176164.334 -20419811.678 -1825447.983 10 0 59337 21600.00000 0 15082804.921 -20526213.446 1382223.559 10 0 59337 22500.00000 0 14769186.894 -20294942.315 4563046.614 10 0 59337 23400.00000 0 14285969.010 -19703982.093 7655258.160 10 0 59337 24300.00000 0 13688453.898 -18743725.030 10598848.623 10 0 59337 25200.00000 0 13034077.329 -17417554.417 13336724.770 10 0 59337 26100.00000 0 12379824.857 -15741895.967 15815813.082 10 0 59337 27000.00000 0 11779685.068 -13745735.836 17988082.582 10 0 59337 27900.00000 0 11282246.725 -11469625.266 19811467.914 10 0 59337 28800.00000 0 10928540.625 -8964213.234 21250675.568 10 0 59337 29700.00000 0 10750216.435 -6288367.716 22277858.662 10 0 59337 30600.00000 0 10768130.522 -3506962.986 22873148.266 10 0 59337 31500.00000 0 10991403.504 -688423.937 23025031.873 10 0 59337 32400.00000 0 11416986.721 2097871.897 22730572.478 10 0 59337 33300.00000 0 12029755.654 4784228.322 21995464.463 10 0 59337 34200.00000 0 12803126.582 7307192.597 20833925.340 10 0 59337 35100.00000 0 13700171.066 9609940.961 19268425.174 10 0 59337 36000.00000 0 14675182.283 11644389.943 17329258.372 10 0 59337 36900.00000 0 15675628.329 13372946.852 15053965.284 10 0 59337 37800.00000 0 16644411.418 14769827.634 12486613.866 10 0 59337 38700.00000 0 17522338.831 15821887.944 9676954.223 10 0 59337 39600.00000 0 18250702.308 16528933.165 6679461.562 10 0 59337 40500.00000 0 18773857.569 16903494.820 3552285.311 10 0 59337 41400.00000 0 19041695.217 16970082.970 356124.234 10 0 59337 42300.00000 0 19011898.375 16763946.166 -2846950.753 10 0 59337 43200.00000 0 18651891.008 16329391.360 -5994703.178 10 0 59337 44100.00000 0 17940393.580 15717734.801 -9025943.311 10 0 59337 45000.00000 0 16868519.059 14984970.701 -11881722.006 10 0 59337 45900.00000 0 15440361.561 14189256.516 -14506482.324 10 0 59337 46800.00000 0 13673051.196 13388321.569 -16849145.937 10 0 59337 47700.00000 0 11596271.338 12636909.033 -18864112.544 10 0 59337 48600.00000 0 9251257.112 11984359.899 -20512152.410 10 0 59337 49500.00000 0 6689315.796 11472441.501 -21761174.373 10 0 59337 50400.00000 0 3969930.055 11133512.756 -22586854.056 10 0 59337 51300.00000 0 1158522.387 10989103.952 -22973110.048 10 0 59337 52200.00000 0 -1676026.651 11048971.312 -22912418.711 10 0 59337 53100.00000 0 -4464003.391 11310666.408 -22405961.483 10 0 59337 54000.00000 0 -7137520.312 11759638.704 -21463601.838 10 0 59337 54900.00000 0 -9633099.269 12369866.920 -20103692.322 10 0 59337 55800.00000 0 -11894071.417 13104992.493 -18352715.395 10 0 59337 56700.00000 0 -13872694.380 13919907.154 -16244765.100 10 0 59337 57600.00000 0 -15531899.021 14762727.334 -13820879.628 10 0 59337 58500.00000 0 -16846593.652 15577071.688 -11128237.931 10 0 59337 59400.00000 0 -17804472.241 16304545.081 -8219236.285 10 0 59337 60300.00000 0 -18406294.089 16887323.621 -5150463.070 10 0 59337 61200.00000 0 -18665624.630 17270730.967 -1981592.330 10 0 59337 62100.00000 0 -18608049.928 17405696.567 1225781.783 10 0 59337 63000.00000 0 -18269899.538 17250991.537 4409346.429 10 0 59337 63900.00000 0 -17696533.091 16775147.438 7507283.293 10 0 59337 64800.00000 0 -16940264.255 15957976.755 10459469.604 10 0 59337 65700.00000 0 -16058010.721 14791630.814 13208643.392 10 0 59337 66600.00000 0 -15108770.087 13281150.544 15701510.299 10 0 59337 67500.00000 0 -14151028.406 11444486.756 17889770.825 10 0 59337 68400.00000 0 -13240210.531 9311988.873 19731048.708 10 0 59337 69300.00000 0 -12426279.201 6925383.119 21189703.222 10 0 59337 70200.00000 0 -11751583.150 4336282.233 22237510.683 10 0 59337 71100.00000 0 -11249043.809 1604287.931 22854203.016 10 0 59337 72000.00000 0 -10940755.851 -1205235.959 23027853.841 10 0 59337 72900.00000 0 -10837059.488 -4023628.476 22755105.433 10 0 59337 73800.00000 0 -10936122.804 -6781533.816 22041232.581 10 0 59337 74700.00000 0 -11224051.320 -9411534.388 20900042.288 10 0 59337 75600.00000 0 -11675520.165 -11850706.959 19353610.989 10 0 59337 76500.00000 0 -12254902.585 -14042997.243 17431863.837 10 0 59337 77400.00000 0 -12917847.925 -15941315.389 15172003.398 10 0 59337 78300.00000 0 -13613243.413 -17509266.286 12617797.831 10 0 59337 79200.00000 0 -14285477.914 -18722443.309 9818741.292 10 0 59337 80100.00000 0 -14876912.874 -19569231.939 6829101.941 10 0 59337 81000.00000 0 -15330456.689 -20051089.978 3706875.203 10 0 59337 81900.00000 0 -15592133.924 -20182292.723 512662.027 10 0 59337 82800.00000 0 -15613540.622 -19989153.806 -2691506.256 10 0 59337 83700.00000 0 -15354081.326 -19508754.516 -5843373.621 10 0 59337 84600.00000 0 -14782892.290 -18787235.118 -8881671.910 10 0 59337 85500.00000 0 -13880368.373 -17877720.356 -11747316.109 99